Weather in Postojna

Slovenia     45°46′31″N   14°12′51″E
temp.,
°C
wind,
m/s
gust,
m/s
humid.,
%
clouds,
%
prec.,
mm/h
press.,
hPa
HPBL,
m
15 may, sat
sat1523:00+8s1297100 0.2 1011100
02:00+8sse1298100 1.4 101166
05:00+8ssw1197100 0.4 101115
08:00+9w009683 0.5 101270
11:00+12wsw238240 1.0 1011862
14:00+13wsw3481100 2.8 1010920
17:00+13wsw577692 1.1 10091055
20:00+10sw2787100 1.2 1009364
16 may, sun
sun1623:00+8ssw2897100 0.0 1010414
02:00+9sw1399100 0.4 1008149
05:00+8s1398100 0.1 1008200
08:00+10ssw249592 0.3 1009346
11:00+11wsw2492100 1.0 1010657
14:00+11ssw2697100 2.1 1009546
17:00+10ssw2899100 1.8 1009816
20:00+10ssw31099100 3.8 1007881
17 may, mon
mon1723:00+11ssw3999100 1.9 1007872
02:00+11sw2899100 4.6 1006662
05:00+10wnw11100100 3.0 1006154
08:00+9ne2499100 8.6 1009395
11:00+9ne2896100 2.0 1010537
14:00+9ne2496100 3.9 1011423
17:00+9nne2498100 3.2 1010331
20:00+8nne2397100 4.8 1011257
18 may, tue
tue1823:00+8ne2498100 0.3 1013218
02:00+7ne399698 0.4 1013601
05:00+7ene2398100 0.1 1013130
08:00+9ne2392100 0.1 1014308
11:00+11ne1384100 0.7 1013588
14:00+9ne1295100 2.4 1012266
17:00+11n1293100 2.7 1011334
20:00+6ne31293100 4.7 1014615
19 may, wed
wed1923:00+6ne3696100 0.8 1015401
02:00+5ne1198100 0.8 101633
05:00+5sse0095100 0.0 101611
08:00+8w008659 0.0 1017218
11:00+13w225925 0.1 10171362
14:00+14w226062 1.1 10161386
17:00+14wsw335733 1.0 10151409
20:00+9n1192100 3.4 101818